STARLINK-1433 (45711 NORAD) Tracking and Keplerian Element Data

This shows tracking and keplerian element data for the satellite.

Feedback or suggestion? Click here.




ElementValue
Catalog45711
NameSTARLINK-1433
Epoch Orbit1075
Epoch Day218.91667824
Epoch Year2020
RAAN221.3349
Inclination52.9996
Eccentricity0.0001215
Argument of Perigee61.2581
Mean Anonmoly197.2272
Mean Motion15.62703714
Decay Rate0.00055478
L11 45711U 20035BG 20218.91667824 .00055478 00000-0 60874-3 0 9991
L22 45711 52.9996 221.3349 0001215 61.2581 197.2272 15.62703714 10755

Live tracking and technical data element details for STARLINK-1433 (NORAD 45711). STARLINK-1433 can be tracked NOW for your location showing map with azimuth and elevation plus other details from your city location.

Track the satellite on the map from your city or location and see movement details for azimuth, elevation, latitude, longitude, range, height, and movement on the map or in text.







IsCatalogInMostPopularTable: catalog: 45711, numindb: 9
Update: records affected: 1



GetName: 45711 STARLINK-1433

Hit Count: updated at: Sat, 08 Aug 2020 00:19:12 GMT